ROMMA est une association bénévole à but non lucratif. Votre soutien est indispensable : ADHERER à ROMMA ou FAIRE un DON

Crempigny - (74, Haute-Savoie)

Albanais-Montagne des Princes (500 m)   Longitude: 05° 54' 5" E   Latitude: 45° 57' 0" N Station partenaire n°10
 

Détail journalier du     <<     >>

Température Precipitation Humidité Pression Vent Dir Rafale Dir. rafale Ensol. 20 cm au dessus du sol
Heure (°C) (mm) (%) (hPa) (km/h) (km/h) (min) (°C)
01:00 2.909210165NO15NO01.7
02:00 1.809510162NO8NE01.1
03:00 2.109510162N6N01.1
04:00 1.409610162N6N01.1
05:00 2.209710161N3N01.1
06:00 1.209810162N6SO01.1
07:00 2.209910153NNO8E02.2
08:00 1.609810151NNO5NNO01.7
09:00 2.409910152NNO10O03.3
10:00 2.209810152SO8OSO03.9
11:00 3.309810141SO5ESE06.7
12:00 3.909610133SSO10SSO06.7
13:00 4.709410122S8SO07.8
14:00 5.009210123SSO6SE06.7
15:00 5.109210113SSO8SSO05.6
16:00 5.609110111S6S306.7
17:00 5.209210112SO5SO404.4
18:00 4.209210113SO8NO03.3
19:00 3.909310124N11NNO03.3
20:00 4.309410122NNO6NNO03.9
21:00 4.30.29410123N8NNE03.9
22:00 4.10.29610131SSO6ENE03.9
23:00 3.80.69710131OSO3SSE03.3
minuit 3.90.29810141OSO3OSO03.9

Graphique du 11-11-2019

 

Serveur OMMA